This is the latest recevied weather packets stored in our database for station/object PY5KT-13. If no packets are shown the sender has not sent any weather packets the latest 10 day(s).
| Time | Temp. | Humidity | Pressure | Rain* | Wind** | Luminosity | Snow |
|---|---|---|---|---|---|---|---|
| 1778172792 | 27.78° C | 43% | 1014.1 hPa | 0 mm | - | 484 W/m² | - |
| 1778172490 | 28.33° C | 40% | 1014.2 hPa | 0 mm | - | 492 W/m² | - |
| 1778172188 | 28.33° C | 40% | 1014.2 hPa | 0 mm | - | 490 W/m² | - |
| 1778171886 | 28.33° C | 39% | 1014.4 hPa | 0 mm | - | 491 W/m² | - |
| 1778171584 | 27.78° C | 40% | 1014.5 hPa | 0 mm | - | 493 W/m² | - |
| 1778171282 | 27.78° C | 42% | 1014.5 hPa | 0 mm | - | 466 W/m² | - |
| 1778170980 | 27.78° C | 43% | 1014.6 hPa | 0 mm | - | 500 W/m² | - |
| 1778170678 | 28.89° C | 42% | 1014.7 hPa | 0 mm | - | 510 W/m² | - |
| 1778170376 | 27.78° C | 43% | 1014.8 hPa | 0 mm | - | 507 W/m² | - |
| 1778170075 | 27.78° C | 42% | 1014.8 hPa | 0 mm | - | 510 W/m² | - |
| 1778169773 | 27.78° C | 42% | 1014.9 hPa | 0 mm | - | 518 W/m² | - |
| 1778169471 | 28.33° C | 42% | 1015.1 hPa | 0 mm | - | 519 W/m² | - |
| 1778169167 | 27.22° C | 44% | 1015.3 hPa | 0 mm | - | 514 W/m² | - |
| 1778168866 | 27.78° C | 44% | 1015.4 hPa | 0 mm | - | 524 W/m² | - |
| 1778168561 | 27.22° C | 44% | 1015.5 hPa | 0 mm | - | 524 W/m² | - |
| 1778168259 | 27.78° C | 44% | 1015.6 hPa | 0 mm | - | 527 W/m² | - |
| 1778167957 | 27.22° C | 45% | 1015.6 hPa | 0 mm | - | 517 W/m² | - |
| 1778167655 | 27.22° C | 46% | 1015.7 hPa | 0 mm | - | 522 W/m² | - |
| 1778167353 | 28.33° C | 45% | 1015.8 hPa | 0 mm | - | 523 W/m² | - |
| 1778167052 | 27.78° C | 45% | 1015.9 hPa | 0 mm | - | 519 W/m² | - |
| 1778166751 | 27.78° C | 44% | 1016 hPa | 0 mm | - | 494 W/m² | - |
| 1778166449 | 27.78° C | 45% | 1016.1 hPa | 0 mm | - | 509 W/m² | - |
| 1778166147 | 27.78° C | 44% | 1016.2 hPa | 0 mm | - | 532 W/m² | - |
| 1778165845 | 27.22° C | 46% | 1016.4 hPa | 0 mm | - | 531 W/m² | - |
| 1778165543 | 26.67° C | 48% | 1016.5 hPa | 0 mm | - | 535 W/m² | - |
* Rain latest hour (hover to see other rain measurements)
** Current wind speed in m/s (hover to see current wind gust speed)